Regional Weather Roundup
Issued by NWS

Home | Current Version | Previous Version | Text Only | Print | Product List | Glossary Off
Versions: 1 2 3 4 5 6 7 8 9 10 11 12 13 14 15 16 17 18 19 20 21 22 23 24 25 26 27

000
ASUS45 KBOI 152310
RWRID
WEATHER ROUNDUP FOR IDAHO
NATIONAL WEATHER SERVICE BOISE ID
500 PM MDT TUE APR 15 2014

NOTE: "FAIR" INDICATES FEW OR NO CLOUDS BELOW 12000 FEET
WITH NO SIGNIFICANT WEATHER AND/OR OBSTRUCTIONS TO VISIBILITY

IDZ012-014-160000-
SOUTHWEST IDAHO


CITY           SKY/WX    TMP DP  RH WIND       PRES   REMARKS
BOISE          MOSUNNY   61  24  24 N18G26    29.94F
CALDWELL       SUNNY     61  25  25 NW21G30   29.97S
MOUNTAIN HOME  MOSUNNY   62  23  23 NW25G33   29.92F
$$

IDZ016-017-160000-
SOUTHCENTRAL IDAHO


CITY           SKY/WX    TMP DP  RH WIND       PRES   REMARKS
BURLEY         LGT RAIN  55  25  31 W30G47    29.85F
JEROME         PTSUNNY   56  25  30 W35G47    29.90S
TWIN FALLS     PTSUNNY   58  25  28 W24G37    29.91F
$$

IDZ019>023-160000-
SOUTHEAST IDAHO


CITY           SKY/WX    TMP DP  RH WIND       PRES   REMARKS
IDAHO FALLS    PTSUNNY   55  24  30 W24G31    29.72R
POCATELLO      MOSUNNY   58  21  24 W44G51    29.79F
REXBURG        CLOUDY    53  16  23 NW17G32   29.70R
$$

IDZ006-010-011-018-031-032-160000-
CENTRAL IDAHO MOUNTAINS


CITY           SKY/WX    TMP DP  RH WIND       PRES   REMARKS
MCCALL         MOSUNNY   48   9  20 NW15G25   29.93F
HAILEY         MOSUNNY   54  12  19 W9G35     29.83F
STANLEY          N/A     39  19  44 NW10      29.90R WCI  32
SALMON         MOSUNNY   52  18  25 W14G26    29.85S
CHALLIS        LGT RAIN  44  20  38 W29G41    29.86R
$$

IDZ002-004-006-007-026-160000-
NORTHERN IDAHO


CITY           SKY/WX    TMP DP  RH WIND       PRES   REMARKS
LEWISTON       CLOUDY    60  16  18 W21G33    29.96F
LOWELL           N/A     48  42  80 CALM      30.01F
COEUR D`ALENE  PTSUNNY   52  30  43 W6        29.89R
MULLAN PASS    SNOW      28  27  93 VRB7G23   29.87R VSB 1/4 WCI  21
$$



USA.gov is the U.S. government's official web portal to all federal, state and local government web resources and services.